Regional Weather Roundup
Issued by NWS Charleston, WV

Home | Current Version | Previous Version | Graphics & Text | Print | Product List | Glossary On
Versions: 1 2 3 4 5 6 7 8 9 10 11 12 13 14 15 16 17 18 19 20 21 22 23 24 25 26 27 28 29 30 31 32 33 34 35 36 37 38 39 40 41 42 43 44 45 46 47 48
000
ASUS41 KRLX 192210
RWRRLX
West Virginia Regional Weather Roundup
National Weather Service Charleston WV
Issued by National Weather Service Pittsburgh PA
500 PM EST SUN NOV 19 2017

Note: "fair" indicates few or no clouds below 12,000 feet with no
significant weather and/or obstructions to visibility.

WVZ003-192300-
Northern Panhandle of West Virginia

CITY           SKY/WX    TMP DP  RH WIND       PRES   REMARKS
WHEELING       LGT SNOW  33  30  88 W23G38    29.89R FOG     WCI  21
$$

WVZ009-192300-
Northwest West Virginia

CITY           SKY/WX    TMP DP  RH WIND       PRES   REMARKS
PARKERSBURG    CLOUDY    39  29  67 W13       29.98R
$$

WVZ006-192300-
Western West Virginia

CITY           SKY/WX    TMP DP  RH WIND       PRES   REMARKS
HUNTINGTON     CLOUDY    40  27  59 W14G22    30.04R
$$

WVZ015-192300-
West Central West Virginia

CITY           SKY/WX    TMP DP  RH WIND       PRES   REMARKS
CHARLESTON     CLOUDY    41  28  60 VRB5      29.99R
$$

WVZ031-192300-
North Central West Virginia

CITY           SKY/WX    TMP DP  RH WIND       PRES   REMARKS
CLARKSBURG     CLOUDY    39  29  67 W10G18    29.91R
MORGANTOWN     CLOUDY    35  32  88 W8        29.90R WCI  29
$$

WVZ035-042-192300-
South Central West Virginia

CITY           SKY/WX    TMP DP  RH WIND       PRES   REMARKS
BECKLEY        CLOUDY    33  24  69 W8        29.94R WCI  26
BLUEFIELD      CLOUDY    31  23  72 W9        29.95R WCI  23
$$

WVZ045-192300-
Greenbrier Valley of West Virginia

CITY           SKY/WX    TMP DP  RH WIND       PRES   REMARKS
LEWISBURG      CLOUDY    35  25  65 NW9G21    29.93R WCI  28
$$

WVZ047-192300-
Northern Mountains of West Virginia

CITY           SKY/WX    TMP DP  RH WIND       PRES   REMARKS
ELKINS         LGT SNOW  33  29  85 W15G23    29.90R FOG     WCI  23
$$

WVZ052-192300-
Eastern Panhandle of West Virginia

CITY           SKY/WX    TMP DP  RH WIND       PRES   REMARKS
MARTINSBURG    CLOUDY    42  24  49 W10       29.82R
PETERSBURG     CLOUDY    38  28  66 W13G18    29.87R
$$




USA.gov is the U.S. government's official web portal to all federal, state and local government web resources and services.